Temp
69 70 70 70 70 69 69 68 69 69 68 67 66 65 64 64 63 63 62 62 61 62 61 59 59 59 58 58 57 57 56 56 53 52 48 45 44 43 43 42 42 41 41
67 67 68 68 69 68 67 68 68 68 68 67 67 65 64 63 63 62 63 63 62 60 59 57 57 57 57 57 56 56 56 55 54 52 45 42 42 42 42 40 40 40 38
62 64 64 66 66 66 67 67 67 67 67 67 66 64 65 64 63 62 64 64 61 60 59 57 57 56 55 56 55 54 53 49 49 46 44 40 40 39 37 37 37 36 38
58 59 61 63 65 65 66 66 66 66 65 65 65 65 64 63 62 61 62 62 60 59 57 57 57 56 56 53 52 51 48 45 43 39 36 37 37 35 35 34 33 33 33
57 58 60 62 63 63 62 63 63 63 64 64 63 63 62 61 60 59 57 59 59 56 54 55 54 51 47 49 49 47 45 41 36 36 35 35 34 33 34 33 33 32 33
55 57 59 58 58 59 59 57 59 60 61 61 60 61 59 55 48 49 53 56 54 52 51 48 47 40 43 44 44 44 46 44 37 37 35 35 36 35 33 33 33 32 32
53 53 51 52 51 51 51 50 50 53 54 54 55 55 55 52 46 47 46 54 52 52 49 46 42 42 40 42 42 42 41 43 43 40 36 36 34 35 34 33 33 33 32
48 48 45 45 47 45 45 47 46 47 50 50 48 52 53 50 44 45 43 50 50 49 47 45 43 40 40 39 38 36 35 37 38 38 37 36 36 35 35 34 33 33 32
44 43 43 44 43 42 43 46 47 44 44 45 44 46 47 43 42 43 44 44 41 40 41 42 41 38 38 40 35 34 33 33 39 40 39 40 40 40 36 33 32 31 29
42 43 43 43 44 43 46 45 41 44 44 41 39 43 40 41 41 42 44 41 37 36 35 36 35 38 39 39 35 34 33 33 33 33 34 37 36 36 38 33 32 32 32
41 40 39 41 43 45 45 42 39 41 38 38 38 36 37 38 39 41 41 38 38 35 35 33 33 38 39 39 37 34 34 34 35 33 33 33 32 32 32 32 33 33 32
39 39 38 38 38 41 39 37 38 38 38 36 35 34 34 35 37 40 40 39 39 36 34 33 33 38 39 39 36 37 38 34 33 33 32 32 32 32 32 32 32 32 32
38 37 37 34 35 37 37 36 37 37 39 37 37 37 34 34 36 39 39 39 39 35 35 35 37 38 38 39 37 38 34 33 33 32 32 31 31 32 31 30 31 31 30
37 37 33 34 35 36 36 37 38 37 38 38 37 37 35 34 35 36 36 37 36 35 35 36 36 36 36 35 34 36 34 33 33 33 32 31 31 29 29 30 29 29 29
33 32 33 34 34 35 36 37 38 39 40 38 38 38 35 34 35 37 36 35 35 35 34 34 33 32 31 30 31 32 32 32 32 31 31 30 30 30 29 29 27 25 21
31 33 34 35 33 35 35 34 37 38 38 39 39 38 36 39 38 37 37 37 36 36 33 32 31 31 30 30 30 30 31 29 31 28 30 30 28 26 26 23 22 22 21
32 33 34 32 33 34 34 35 33 34 38 38 38 39 38 37 37 37 37 37 37 36 33 32 31 31 31 31 30 31 30 30 30 29 29 26 25 22 23 23 24 23 24
31 32 32 32 34 34 34 35 34 34 33 34 37 37 37 37 36 37 37 36 34 34 33 32 32 32 32 31 31 30 28 27 27 25 24 23 24 23 22 21 22 17 19
29 30 31 32 32 33 32 33 33 33 33 31 32 34 35 36 36 36 37 34 33 32 32 32 33 31 30 29 27 26 26 25 23 22 22 22 21 20 18 18 16 14 12
24 27 29 30 31 31 30 30 30 31 30 30 31 31 33 33 32 33 33 33 33 33 32 29 29 27 25 25 23 22 20 19 18 19 18 16 15 15 15 13 9 7 6
20 20 21 25 27 28 29 28 27 28 28 30 26 26 34 33 32 32 32 33 32 28 26 24 23 23 22 21 20 20 18 18 17 16 15 13 12 12 11 10 6 3 2
17 18 19 18 20 22 24 25 25 25 24 22 23 27 30 23 24 24 23 23 23 24 23 22 20 19 19 19 18 18 17 15 14 13 12 11 10 9 7 7 6 1 -2
14 15 16 17 18 18 19 21 22 21 21 21 20 19 19 19 19 19 17 16 16 16 17 18 16 15 15 15 16 17 15 14 13 12 10 8 7 7 7 7 4 -4 -4
12 12 13 14 15 16 16 16 17 17 17 17 16 16 16 16 15 14 13 13 13 12 13 13 13 12 11 11 11 11 12 11 11 11 10 8 7 8 6 2 3 2 0
9 9 9 10 10 11 13 14 14 14 14 14 14 14 13 13 13 12 12 12 11 11 10 10 11 11 11 10 9 9 10 11 8 8 7 7 7 6 5 4 3 3 -0
7 7 7 8 8 8 9 9 10 12 12 12 13 13 12 12 12 11 11 10 10 10 9 9 9 10 10 10 10 10 9 10 7 7 6 6 5 4 4 4 3 1 -1
MSLP
1005.23 1005.53 1005.56 1005.76 1006.21 1006.79 1007.10 1007.45 1007.63 1008.02 1008.51 1008.98 1009.56 1010.19 1010.77 1011.29 1011.79 1012.34 1012.83 1013.26 1013.67 1014.16 1014.61 1015.05 1015.35 1015.81 1016.13 1016.61 1016.99 1017.32 1017.54 1017.85 1017.75 1017.93 1018.55 1018.90 1019.42 1019.75 1019.97 1020.11 1020.30 1020.29 1020.37
1004.53 1005.08 1005.03 1005.00 1005.36 1005.77 1006.08 1006.46 1006.85 1007.03 1007.41 1007.78 1008.41 1008.97 1009.50 1010.04 1010.57 1011.07 1011.49 1011.86 1012.32 1012.91 1013.46 1014.16 1014.51 1015.07 1015.35 1015.83 1016.15 1016.40 1016.65 1016.82 1017.22 1017.64 1018.27 1018.99 1019.35 1019.66 1019.74 1019.93 1020.13 1020.41 1020.35
1004.52 1004.44 1004.52 1004.45 1004.59 1004.77 1004.97 1005.41 1005.96 1006.22 1006.48 1006.88 1007.31 1007.73 1008.02 1008.49 1009.05 1009.70 1010.14 1010.70 1011.34 1011.85 1012.51 1013.15 1013.65 1014.30 1014.67 1014.93 1015.24 1015.59 1015.95 1016.38 1016.92 1017.42 1018.13 1018.75 1019.20 1019.59 1019.81 1019.88 1020.07 1020.23 1020.08
1003.99 1003.72 1003.68 1003.73 1003.84 1003.95 1004.18 1004.55 1004.99 1005.30 1005.55 1005.95 1006.23 1006.65 1007.14 1007.64 1008.14 1008.71 1009.18 1009.87 1010.51 1011.15 1011.79 1012.37 1012.95 1013.38 1013.71 1014.21 1014.70 1014.98 1015.56 1016.13 1016.68 1017.32 1017.97 1018.43 1018.88 1019.47 1019.67 1019.97 1019.96 1019.98 1020.02
1003.31 1003.30 1003.04 1002.78 1002.99 1003.23 1003.66 1003.81 1004.00 1004.41 1004.74 1005.07 1005.47 1005.85 1006.47 1007.03 1007.58 1008.07 1008.70 1009.30 1009.93 1010.65 1011.28 1011.77 1012.16 1012.50 1012.88 1013.39 1014.05 1014.69 1015.36 1015.91 1016.58 1017.23 1017.97 1018.31 1018.82 1019.39 1019.72 1019.88 1020.02 1019.87 1019.56
1002.87 1002.57 1002.38 1002.47 1002.49 1002.54 1002.80 1003.10 1003.38 1003.58 1003.80 1004.26 1004.63 1005.08 1005.81 1006.32 1006.83 1007.41 1008.03 1008.70 1009.25 1009.98 1010.69 1011.28 1011.68 1012.16 1012.60 1013.10 1013.59 1014.11 1014.77 1015.45 1016.20 1016.78 1017.37 1017.76 1018.20 1018.73 1019.35 1019.71 1019.79 1019.92 1019.70
1002.22 1002.13 1002.11 1002.10 1002.28 1002.17 1002.22 1002.45 1002.60 1002.96 1003.51 1003.78 1004.05 1004.49 1005.07 1005.64 1006.05 1006.63 1007.14 1007.88 1008.51 1009.14 1009.97 1010.76 1011.53 1012.08 1012.51 1013.15 1013.81 1014.38 1015.04 1015.34 1015.55 1016.03 1016.68 1017.07 1017.63 1017.98 1018.44 1018.88 1019.18 1019.15 1019.09
1001.61 1001.79 1001.97 1001.96 1001.80 1001.90 1002.19 1002.22 1002.46 1002.57 1002.85 1003.29 1003.73 1004.17 1004.71 1005.07 1005.61 1006.10 1006.71 1007.35 1007.90 1008.51 1009.20 1009.97 1010.79 1011.67 1012.33 1012.96 1013.80 1014.50 1015.08 1015.36 1015.65 1015.97 1016.07 1016.24 1016.68 1017.19 1017.72 1017.91 1018.41 1018.39 1018.50
1001.14 1001.57 1001.38 1001.28 1001.50 1001.57 1001.68 1002.04 1002.13 1002.33 1002.64 1002.92 1003.34 1003.91 1004.36 1004.88 1005.25 1005.70 1006.39 1006.97 1007.60 1008.27 1008.76 1009.40 1010.12 1011.02 1011.68 1012.44 1013.20 1014.14 1014.86 1015.19 1015.28 1015.53 1015.88 1015.94 1016.20 1016.51 1017.38 1018.24 1018.54 1018.09 1017.98
1001.01 1000.44 1000.33 1000.45 1000.76 1000.89 1000.86 1001.26 1001.51 1001.92 1002.13 1002.57 1002.92 1003.29 1003.74 1004.29 1004.76 1005.24 1005.73 1006.48 1007.41 1008.14 1008.92 1009.44 1009.92 1010.53 1011.37 1011.92 1012.44 1013.35 1014.12 1014.50 1015.03 1015.61 1016.19 1016.44 1016.88 1017.17 1017.27 1017.72 1017.82 1017.73 1017.27
999.53 999.58 999.70 999.70 999.85 999.93 1000.05 1000.45 1000.84 1001.39 1001.84 1002.33 1002.79 1003.24 1003.76 1004.02 1004.61 1005.10 1005.64 1006.22 1007.12 1008.31 1009.06 1009.71 1010.00 1010.43 1011.12 1011.88 1012.54 1012.93 1013.31 1014.06 1014.78 1015.60 1016.43 1016.88 1017.25 1017.70 1018.07 1018.06 1018.18 1017.83 1017.46
999.65 999.34 999.12 999.08 999.18 999.52 999.80 999.92 1000.27 1000.81 1001.32 1002.10 1002.68 1003.18 1003.56 1003.99 1004.32 1004.93 1005.51 1005.98 1006.71 1007.59 1008.60 1009.40 1009.88 1010.34 1010.82 1011.44 1012.28 1012.63 1013.25 1013.70 1014.39 1015.23 1016.06 1016.67 1017.26 1017.55 1018.11 1018.07 1018.35 1017.79 1017.45
1000.00 999.27 998.82 998.85 999.00 998.98 999.42 999.84 1000.17 1000.40 1000.76 1001.19 1001.93 1002.50 1003.15 1003.84 1004.27 1004.55 1005.18 1005.65 1006.26 1007.21 1007.93 1008.80 1009.61 1010.25 1010.87 1011.24 1011.87 1012.44 1012.83 1013.19 1013.80 1014.62 1015.31 1016.01 1016.89 1017.56 1017.65 1017.88 1018.03 1017.84 1017.41
1000.25 999.36 999.11 999.09 999.08 999.26 998.97 998.87 999.29 999.76 1000.11 1000.36 1000.89 1001.61 1002.42 1003.19 1003.99 1004.54 1005.08 1005.68 1006.53 1007.35 1007.85 1008.27 1009.10 1009.89 1010.67 1011.26 1011.85 1012.16 1012.67 1012.95 1013.42 1014.14 1014.85 1015.92 1016.66 1017.42 1017.54 1017.78 1017.84 1017.62 1017.37
1000.49 999.86 999.35 999.10 999.09 999.13 999.03 998.68 998.30 998.40 998.51 998.92 999.49 1000.18 1001.00 1001.79 1002.21 1003.13 1004.03 1004.90 1005.75 1006.62 1007.79 1008.39 1009.05 1009.79 1010.63 1011.35 1011.76 1012.12 1012.49 1012.94 1013.34 1014.10 1014.73 1015.58 1016.40 1016.99 1017.11 1017.44 1017.48 1017.42 1017.55
1000.81 999.96 999.42 999.21 999.10 998.96 998.95 998.88 998.65 998.62 998.93 999.20 999.53 999.91 1000.65 1001.01 1001.75 1002.70 1003.65 1004.46 1005.31 1006.34 1007.39 1007.95 1008.59 1009.30 1010.20 1011.06 1011.37 1011.70 1012.46 1012.86 1013.39 1014.25 1014.58 1015.25 1016.35 1016.83 1017.05 1017.46 1017.39 1017.47 1017.66
1001.15 999.90 999.32 999.17 999.05 999.02 998.97 998.88 998.86 998.73 998.80 999.14 999.52 999.97 1000.47 1000.92 1001.57 1002.08 1002.98 1004.07 1004.77 1005.74 1006.21 1007.44 1008.22 1008.73 1009.50 1010.34 1010.85 1011.70 1012.09 1012.67 1013.28 1014.10 1014.73 1015.34 1016.12 1016.48 1016.97 1017.31 1017.54 1017.64 1017.92
1001.50 999.97 999.32 999.10 999.00 998.97 998.89 998.69 998.73 998.87 998.93 999.08 999.33 999.79 1000.37 1001.10 1001.86 1002.26 1002.92 1002.91 1004.89 1005.54 1005.74 1005.99 1007.07 1008.09 1009.05 1009.75 1010.59 1011.29 1012.00 1012.66 1013.33 1014.13 1014.68 1015.23 1015.78 1015.99 1016.49 1017.12 1017.67 1017.98 1018.19
1001.83 1000.55 999.48 999.32 998.99 999.11 999.04 999.00 998.61 998.93 999.34 999.50 999.78 1000.40 1000.42 1000.97 1001.75 1002.60 1002.36 1002.73 1003.16 1004.63 1005.51 1005.87 1006.25 1007.36 1008.62 1009.71 1010.64 1011.15 1011.87 1012.65 1013.43 1013.96 1014.50 1015.19 1015.51 1015.75 1016.33 1017.00 1017.71 1018.21 1018.55
1002.73 1001.27 1000.17 999.83 999.53 999.47 999.51 999.54 998.99 999.14 999.71 1000.15 1000.25 1000.42 1000.47 1001.10 1001.87 1002.09 1002.19 1002.67 1002.90 1004.06 1004.75 1005.54 1006.31 1007.24 1008.64 1009.56 1010.44 1011.28 1011.95 1012.67 1013.43 1013.93 1014.60 1015.08 1015.40 1015.74 1016.34 1017.15 1017.88 1018.51 1019.11
1003.19 1002.45 1001.55 1000.86 1000.92 1000.91 1000.14 999.70 999.55 999.76 1000.07 1000.36 1000.60 1000.63 1000.71 1001.04 1001.64 1001.61 1001.93 1002.34 1002.60 1003.69 1004.55 1005.40 1006.31 1007.47 1008.71 1009.66 1010.50 1011.15 1011.82 1012.65 1013.35 1014.03 1014.57 1014.90 1015.29 1015.77 1016.40 1017.21 1018.06 1018.71 1019.31
1004.51 1004.23 1004.00 1003.66 1003.17 1002.97 1001.60 1000.71 1000.41 1000.17 1000.30 1000.70 1001.07 1001.01 1001.25 1001.69 1002.17 1002.62 1003.14 1003.14 1003.29 1003.99 1004.50 1005.59 1006.73 1007.61 1008.56 1009.56 1010.22 1010.99 1011.71 1012.66 1013.56 1014.05 1014.57 1015.01 1015.46 1016.07 1016.63 1017.19 1017.97 1018.67 1019.18
1006.45 1006.63 1006.26 1005.76 1005.15 1004.59 1003.91 1002.79 1002.20 1001.79 1001.64 1001.90 1002.26 1002.44 1002.59 1002.79 1003.06 1003.43 1003.97 1004.35 1004.75 1005.27 1005.76 1006.55 1007.30 1008.10 1008.83 1009.59 1010.21 1010.87 1011.69 1012.39 1013.06 1013.61 1014.28 1014.93 1015.52 1016.13 1016.77 1017.36 1017.89 1018.54 1018.98
1009.09 1008.92 1008.65 1007.90 1007.14 1006.40 1005.61 1005.08 1004.50 1004.10 1003.86 1003.80 1004.13 1004.18 1004.23 1004.23 1004.31 1004.75 1005.32 1005.63 1005.95 1006.27 1006.72 1007.09 1007.87 1008.64 1009.21 1009.78 1010.55 1011.10 1011.71 1012.26 1012.83 1013.39 1013.96 1014.70 1015.46 1016.14 1016.67 1017.38 1017.78 1018.11 1018.62
1011.11 1010.66 1010.42 1009.74 1008.95 1008.47 1007.89 1007.16 1006.49 1006.04 1005.93 1005.75 1005.58 1005.64 1005.77 1005.64 1005.73 1006.05 1006.52 1006.83 1006.86 1007.29 1007.56 1007.70 1008.18 1008.85 1009.49 1009.91 1010.55 1011.19 1011.69 1012.07 1012.77 1013.37 1013.92 1014.49 1015.01 1015.65 1016.30 1016.84 1017.36 1017.91 1018.26
1012.50 1011.72 1011.35 1011.18 1010.69 1010.24 1009.63 1008.92 1008.22 1007.77 1007.44 1007.22 1007.00 1006.80 1006.90 1006.85 1007.00 1007.01 1007.36 1007.60 1007.81 1007.96 1008.09 1008.30 1008.55 1008.96 1009.39 1010.06 1010.71 1011.03 1011.48 1011.89 1012.32 1012.97 1013.74 1014.37 1014.80 1015.30 1015.81 1016.29 1016.79 1017.39 1017.86
Wind_Speed
15 17 17 18 20 18 18 18 19 17 16 17 16 17 18 17 16 16 16 14 15 14 12 12 12 10 8 7 6 7 8 8 9 3 2 2 3 2 1 1 3 4 3
12 14 15 15 16 18 18 19 17 18 16 16 16 16 17 17 17 17 18 15 16 14 14 12 13 8 11 9 8 10 9 8 7 8 3 3 3 3 2 3 3 3 4
7 10 12 14 15 17 19 18 17 16 17 16 16 18 18 18 17 17 17 17 15 14 13 13 13 11 11 9 9 8 6 4 3 3 3 2 2 2 2 1 2 4 3
8 8 10 12 14 16 15 15 15 16 16 16 16 17 17 16 15 15 15 16 13 12 12 12 12 12 12 10 9 8 5 4 3 2 2 2 2 1 1 2 2 2 2
9 10 13 13 13 12 12 13 13 14 14 15 15 14 13 13 11 13 12 14 13 10 10 11 10 11 11 10 7 6 6 4 2 3 2 2 2 1 2 1 2 2 2
10 14 13 10 10 12 12 11 12 13 14 13 13 14 12 8 12 14 13 11 10 10 10 7 6 7 8 11 9 8 8 6 5 4 3 3 4 3 2 2 2 1 1
11 11 8 8 8 9 9 9 10 11 9 9 10 11 12 9 15 18 18 11 12 11 10 9 7 4 7 7 8 7 5 6 4 5 5 5 4 5 5 4 4 4 3
10 9 7 9 10 8 7 10 7 7 11 9 8 10 11 10 17 17 17 11 10 10 10 11 11 10 7 8 8 6 5 4 4 3 5 6 5 6 5 4 3 2 1
8 9 10 11 10 8 9 10 8 7 7 8 6 10 12 9 16 17 16 9 8 8 7 8 10 9 13 14 9 8 6 4 5 8 8 10 10 10 7 4 3 3 2
8 13 11 10 11 12 13 11 6 7 9 6 7 11 11 11 17 20 14 8 9 7 5 6 10 10 16 16 10 10 9 7 7 5 4 6 6 4 10 3 3 3 2
9 9 9 11 13 14 12 10 8 9 6 8 8 5 6 8 11 16 13 7 7 7 6 5 4 14 15 15 11 8 6 9 9 6 4 3 2 2 0 0 2 1 1
8 8 9 9 8 8 10 8 8 10 10 8 7 5 3 5 11 14 15 11 14 9 8 6 6 15 16 17 12 12 15 11 7 6 5 4 3 3 2 3 1 1 1
11 10 8 5 6 8 10 9 7 9 10 9 9 9 7 5 7 17 17 17 17 8 7 11 16 16 16 13 15 16 13 7 7 6 6 4 3 2 3 1 1 1 2
15 11 4 5 7 8 6 8 9 9 9 9 10 9 8 8 7 7 7 9 12 8 15 12 13 12 10 9 6 10 6 6 6 6 5 4 4 2 2 2 2 2 2
12 7 5 5 7 8 9 9 10 10 11 12 11 11 12 12 12 14 12 10 9 10 11 9 8 8 7 6 5 5 5 5 6 5 6 5 4 3 3 2 2 1 2
12 8 6 7 4 6 7 2 5 7 8 9 11 11 7 9 19 20 19 18 19 24 9 9 8 8 8 8 7 7 6 6 6 4 5 5 4 3 3 2 1 2 2
11 7 5 4 3 5 6 8 8 2 12 13 14 14 15 12 22 24 23 22 24 23 8 8 8 8 8 8 8 7 6 5 6 5 4 4 4 3 3 2 1 1 1
10 8 4 2 3 5 6 7 5 6 7 5 10 12 14 20 22 23 24 22 14 12 8 10 10 9 8 8 8 7 7 6 5 5 5 5 4 4 3 3 2 2 2
9 6 4 3 2 2 2 3 4 5 4 4 5 5 12 20 21 23 25 9 12 10 8 9 9 9 8 8 7 7 8 6 5 5 5 4 4 3 3 3 3 3 3
12 15 9 5 4 3 2 1 1 3 4 5 5 6 8 10 11 12 11 9 10 9 9 9 8 8 7 8 8 7 7 6 6 5 5 5 4 4 4 4 3 3 2
10 12 18 11 8 5 2 1 2 3 3 4 2 0 11 9 9 9 10 10 9 9 9 8 8 8 7 7 7 7 7 6 6 6 5 5 5 5 4 4 4 3 3
12 12 11 10 9 10 7 4 3 2 3 4 2 3 9 4 4 4 4 4 6 6 7 8 7 7 7 7 7 7 7 7 6 5 5 5 5 4 4 4 3 3 3
13 13 12 10 10 11 9 9 7 6 5 5 5 4 4 4 4 4 4 5 5 6 6 6 7 6 5 5 5 6 7 7 7 6 7 6 5 5 4 3 4 3 3
12 12 11 11 10 10 10 10 9 10 8 7 6 5 5 4 5 6 5 5 5 5 5 5 5 7 6 5 4 4 4 5 5 6 8 7 6 6 4 3 3 4 3
10 10 10 10 10 10 10 9 9 8 8 7 6 5 5 5 5 5 4 3 4 4 4 4 4 7 8 9 8 8 8 11 7 8 5 7 8 8 6 3 4 3 3
11 11 10 9 10 9 9 9 9 9 8 7 6 5 4 4 4 4 3 3 2 2 4 3 4 6 8 7 8 10 11 12 10 11 7 6 7 6 5 5 7 3 4
Wind_Direction
219 224 220 218 217 215 217 216 216 213 204 202 199 197 201 202 202 204 212 208 206 215 211 212 216 207 212 213 206 215 223 226 242 219 146 137 164 219 224 218 236 244 253
220 224 227 221 218 219 220 221 217 216 210 203 203 198 198 201 202 204 207 209 213 209 207 204 215 201 209 208 206 217 222 211 223 241 157 170 192 194 189 227 234 241 249
236 223 223 226 220 221 222 220 218 215 214 209 202 201 202 200 198 203 207 213 209 207 205 205 210 200 210 209 211 212 206 194 187 160 176 127 147 172 209 225 257 262 245
229 221 220 220 224 226 224 221 218 215 211 209 207 207 205 203 202 201 204 211 206 204 201 201 200 200 209 202 207 201 176 168 155 136 163 178 154 167 106 218 263 230 275
221 227 228 225 222 219 222 221 214 212 212 209 207 204 200 201 197 194 193 202 202 192 192 194 196 199 194 188 179 171 165 152 152 162 171 147 144 150 195 158 250 246 255
221 227 229 224 217 215 214 210 211 210 207 204 200 198 196 192 180 183 181 189 187 182 190 185 170 158 156 157 145 151 171 174 180 166 163 168 170 172 143 164 192 298 302
224 231 227 217 223 215 209 198 199 197 189 194 189 184 193 183 182 186 179 187 187 190 181 172 158 160 146 147 149 150 173 169 156 161 172 174 165 166 151 172 200 200 208
222 227 224 221 222 214 211 209 203 183 190 187 184 188 193 194 185 183 180 182 184 183 176 171 165 166 167 154 151 151 152 147 172 181 172 167 158 164 178 177 193 188 170
228 223 223 217 216 198 203 211 201 177 183 192 186 187 192 194 186 178 172 164 160 160 153 156 161 159 166 165 149 149 154 161 154 155 163 163 167 173 157 133 207 187 175
218 232 226 208 211 211 214 208 195 203 213 185 186 191 187 182 179 175 167 156 154 150 133 141 160 160 164 164 157 161 167 171 157 125 122 115 101 116 162 207 191 193 150
229 232 222 211 214 215 209 198 184 193 169 187 189 175 172 172 173 168 158 153 151 145 155 158 157 160 162 166 164 170 168 140 146 120 114 106 92 95 36 248 266 251 170
263 244 232 218 206 206 201 188 183 174 173 170 157 147 142 151 162 164 161 148 153 153 164 159 157 163 164 168 165 162 147 131 134 138 145 146 146 151 166 162 223 276 33
289 259 248 202 202 188 186 184 171 179 183 177 178 177 168 167 169 166 163 161 156 148 152 158 158 163 170 167 166 168 145 144 144 149 153 135 143 150 161 192 227 216 138
291 273 234 221 218 214 192 177 181 185 189 183 183 182 168 164 167 166 165 158 158 148 150 151 156 153 142 133 150 161 154 150 146 145 139 131 127 162 173 185 181 183 120
312 297 263 245 220 224 223 213 205 209 198 189 195 182 172 182 188 172 166 165 163 156 142 143 151 154 146 153 151 140 140 141 143 138 145 153 158 172 162 185 179 155 136
318 308 287 268 237 232 224 218 255 209 200 197 184 184 187 180 165 167 168 160 155 153 152 160 161 159 159 168 162 155 155 153 154 145 149 147 159 167 156 210 156 139 155
315 309 296 262 240 243 232 226 214 179 173 174 174 180 182 171 169 169 164 160 160 157 165 167 168 165 162 161 156 161 158 143 126 146 151 143 156 152 155 170 189 147 84
315 320 318 287 260 254 243 230 207 189 184 178 182 170 173 168 174 174 168 146 166 181 176 166 163 163 163 159 160 157 139 135 137 143 133 132 140 145 139 139 128 146 131
323 325 344 330 344 274 256 222 184 181 184 152 123 161 168 168 173 180 169 178 167 175 172 165 156 149 148 147 148 138 142 144 144 136 135 146 147 130 119 109 110 99 102
342 348 354 348 351 332 319 272 138 158 157 168 176 180 158 156 177 184 183 180 168 171 163 148 137 128 130 139 137 139 133 138 148 148 155 153 138 137 140 138 134 129 152
356 1 3 360 355 333 313 84 73 108 148 167 131 150 176 180 188 188 183 180 161 148 136 130 130 131 136 138 141 146 147 152 157 160 159 148 143 139 129 130 134 142 148
11 8 7 3 358 342 345 3 23 69 81 109 129 172 143 91 99 100 101 102 105 114 127 130 132 137 142 150 150 151 154 155 166 157 146 140 139 137 140 139 141 149 153
16 9 7 6 5 359 358 7 12 21 38 45 28 51 50 62 69 74 82 83 87 91 88 112 121 121 118 119 126 147 161 170 168 153 149 149 150 152 152 153 156 147 160
13 11 5 5 6 9 13 12 14 23 30 36 34 35 41 53 65 72 72 79 89 89 88 100 113 128 131 124 125 126 136 131 137 150 147 150 153 154 152 147 164 171 168
10 13 8 5 9 6 3 10 19 25 24 25 32 36 34 37 50 58 61 70 84 96 109 109 112 139 146 149 158 157 151 143 140 143 138 148 157 164 165 162 162 170 166
5 10 13 5 6 4 4 5 9 11 13 14 20 32 31 41 39 47 46 62 88 112 124 126 142 152 156 164 168 160 165 163 158 161 156 163 165 168 170 172 178 176 184